Simultaneous Nadir Overpasses (SNOs) Predictions

Prediction of SNOs between TERRA and METOP-C Satellite Orbit:

Table of predicted SNOs for the next 14.0 days since TLE Epoch: 9/28/2024
Index Date (TERRA) Time (TERRA) Lat,Lon (TERRA) SZA (TERRA ) Date (METOP-C) Time (METOP-C) Lat,Lon (METOP-C) SZA (METOP-C ) Distance(km) Time Diff (sec)
1 09/29/2024 12:19:31 -72.03, 165.92 105.23 09/29/2024 12:19:23 -72.03, 165.96 105.22 1.28 8
2 09/29/2024 13:08:21 73.56, -23.52 76.24 09/29/2024 13:09:33 73.56, -23.52 76.24 0.04 72
3 10/02/2024 02:01:04 69.28, 136.62 73.23 10/02/2024 01:59:51 69.26, 136.54 73.25 3.57 73
4 10/02/2024 02:49:35 -72.12, -51.49 104.14 10/02/2024 02:49:38 -72.13, -51.42 104.13 2.49 3
5 10/04/2024 16:30:56 70.02, -79.95 74.91 10/04/2024 16:29:54 70.03, -79.90 74.93 1.91 62
6 10/04/2024 17:19:39 -72.20, 91.09 103.06 10/04/2024 17:19:54 -72.21, 91.16 103.05 2.72 15
7 10/07/2024 07:01:02 69.93, 62.36 75.81 10/07/2024 07:00:13 69.93, 62.38 75.82 0.71 49
8 10/07/2024 07:49:44 -72.17,-126.53 102.11 10/07/2024 07:50:12 -72.17,-126.48 102.10 1.95 28
9 10/09/2024 21:31:08 69.77,-155.41 76.64 10/09/2024 21:30:33 69.76,-155.45 76.64 1.61 35



Historial Predications of SNOs between TERRA and METOP-C
